Regional Weather Roundup
Issued by NWS

Home | Current Version | Previous Version | Graphics & Text | Print | Product List | Glossary On
Versions: 1 2 3 4 5 6 7 8 9 10 11 12 13 14 15 16 17 18 19 20 21 22 23 24 25 26 27 28 29 30 31 32 33 34 35 36 37 38 39 40 41 42 43 44 45 46 47 48 49 50
000
ASUS43 KMKX 021611
RWRWI

WISCONSIN REGIONAL WEATHER ROUNDUP
NATIONAL WEATHER SERVICE MILWAUKEE/SULLIVAN WI
1100 AM CDT SUN AUG 02 2015

NOTE: "FAIR" INDICATES FEW OR NO CLOUDS BELOW 12,000 FEET WITH NO
SIGNIFICANT WEATHER AND/OR OBSTRUCTIONS TO VISIBILITY.

WIZ001-002-006>008-014>016-023>028-021700-
NORTHWEST WISCONSIN

CITY           SKY/WX    TMP DP  RH WIND       PRES   REMARKS
SUPERIOR ARPT  PTSUNNY   70  58  66 W8        29.63F
ASHLAND        CLOUDY    73  65  75 CALM      29.61F
HAYWARD        CLOUDY    69  66  90 SW6       29.64F
SIREN          CLOUDY    72  66  81 SE3       29.61F
CUMBERLAND     CLOUDY    72  64  78 SW6       29.62F
RICE LAKE      CLOUDY    73  65  76 W6        29.64F
CHETEK         CLOUDY    74  67  78 W8        29.64S
LADYSMITH      PTSUNNY   75  66  72 SW7       29.64S
EAU CLAIRE     SUNNY     80  67  64 W12       29.61F HX  82
MENOMONIE      MOSUNNY   81  66  60 SW14      29.64R HX  83
NEW RICHMOND   PTSUNNY   75  64  67 SW7       29.61F
OSCEOLA        PTSUNNY   74  66  76 SW6       29.63F
$$

WIZ003>005-009-010-017-018-021700-
NORTH CENTRAL WISCONSIN

CITY           SKY/WX    TMP DP  RH WIND       PRES   REMARKS
MANITOWISH WTR CLOUDY    66  64  92 W3        29.65R
ARBOR VITAE    CLOUDY    67  65  91 NW3       29.63F
WOODRUFF       CLOUDY    67  65  91 NW3       29.63F
RHINELANDER    PTSUNNY   67  63  87 S10       29.63F
EAGLE RIVER    LGT RAIN  65  65  99 E6        29.60F
LAND O LAKES   PTSUNNY   66  63  90 E6        29.65F
PHILLIPS       CLOUDY    69  67  94 S5        29.59F
TOMAHAWK       LGT RAIN  67  64  91 SE3       29.63F
MEDFORD        CLOUDY    73  66  78 SW8       29.65F
MERRILL        NOT AVBL
$$

WIZ029-030-035-036-043>047-021700-
CENTRAL WISCONSIN

CITY           SKY/WX    TMP DP  RH WIND       PRES   REMARKS
WAUSAU         PTSUNNY   77  67  71 SW9G18    29.63F
MOSINEE        MOSUNNY   77  70  78 SW14      29.66F
MARSHFIELD     MOSUNNY   81  65  58 W15       29.65F HX  83
STEVENS POINT  PTSUNNY   81  65  59 S15       29.65F HX  82
WAUPACA        PTSUNNY   84  66  54 SW16      29.66F HX  86
WAUTOMA        MOSUNNY   88  67  49 SW14      29.68F HX  91
WISC RAPIDS    MOSUNNY   85  65  51 SW12      29.67F HX  86
CAMP DOUGLAS   NOT AVBL
$$

WIZ011>013-019>022-031-037>040-048>050-021700-
NORTHEAST WISCONSIN

CITY           SKY/WX    TMP DP  RH WIND       PRES   REMARKS
ANTIGO         PTSUNNY   74  68  80 W10       29.66F
SHAWANO        CLOUDY    77  71  81 SW6       29.64F
OCONTO         CLOUDY    73  71  92 SW5       29.61F
STURGEON BAY   CLOUDY    73  66  78 SW12      29.65F
GREEN BAY      CLOUDY    80  70  71 S16G22    29.66F HX  83
MANITOWOC      CLOUDY    77  71  82 MISG      29.69F
APPLETON       PTSUNNY   81  66  61 SW14G21   29.69F HX  83
CLINTONVILLE   CLOUDY    79  66  65 SW17      29.65F HX  81
OSHKOSH        PTSUNNY   82  69  64 SW10G17   29.69F HX  85
$$

WIZ032>034-041-042-053>061-021700-
SOUTHWEST WISCONSIN

CITY           SKY/WX    TMP DP  RH WIND       PRES   REMARKS
LA CROSSE      SUNNY     85  69  58 S13       29.66F HX  89
SPARTA         SUNNY     84  65  52 SW12      29.68F HX  86
VIROQUA        SUNNY     82  68  63 SW10G18   29.73F HX  84
BOSCOBEL       SUNNY     86  68  54 SW9G21    29.74F HX  89
PRAIRIE DU CHI SUNNY     84  64  50 SW9       29.74F HX  85
PLATTEVILLE    SUNNY     78  69  75 SW12G21   29.78F HX  80
$$

WIZ056-057-062-063-064-067-068-021700-
SOUTH CENTRAL WISCONSIN

CITY           SKY/WX    TMP DP  RH WIND       PRES   REMARKS
REEDSBURG      SUNNY     84  69  60 SW14G20   29.72S HX  88
BARABOO/DELLS  SUNNY     85  65  51 SW12G21   29.72S HX  86
LONE ROCK      MOSUNNY   83  67  58 SW14G20   29.74F HX  85
MINERAL POINT  SUNNY     82  68  61 SW15      29.77F HX  85
MADISON        PTSUNNY   81  68  64 VRB7      29.74R HX  84
MIDDLETON      MOSUNNY   84  66  54 W15G21    29.75S HX  86
WATERTOWN      PTSUNNY   82  71  68 W15G22    29.75R HX  86
MONROE         SUNNY     81  64  57 SW20G28   29.78S HX  82
JANESVILLE     SUNNY     68  66  94 SW17G23   29.76F
$$

WIZ051-052-058>065-066-070>072-021700-
SOUTHEAST WISCONSIN

CITY           SKY/WX    TMP DP  RH WIND       PRES   REMARKS
MILWAUKEE      PTSUNNY   86  67  52 SW22G31   29.74F HX  89
WAUKESHA       MOSUNNY   84  66  54 SW12G23   29.76S HX  86
MILWAUKEE/TIMM SUNNY     84  64  51 SW23G31   29.74F HX  86
RACINE         SUNNY     86  68  54 SW20G30   29.75F HX  89
BURLINGTON     SUNNY     83  66  56 SW17G24   29.76F HX  85
KENOSHA        SUNNY     85  69  58 W16G31    29.76F HX  89
FOND DU LAC    PTSUNNY   82  70  66 SW12G22   29.71F HX  86
SHEBOYGAN      CLOUDY    80  70  71 W13       29.72S HX  83
WEST BEND      PTSUNNY   79  66  65 W12G21    29.73F HX  81
JUNEAU         PTSUNNY   80  69  69 SW16      29.75F HX  83
$$

LSZ147-162-021700-
LAKE SUPERIOR

STATION/POSITION TIME  TEMP    WIND        PRES    WAVE
                       AIR SEA DIR/SP/G            HT/PER
                 (UTC) (F)     (DEG/KT/KT) (MB)    (FT/S)
W MID LAKE BUOY  1550   58 55  220/  6/ 10 1001.5F   1/ 4
DEVILS ISLAND    1600   66     230/  9/ 11 1002.2F
PORT WING        1500   65     140/  4/  8 1002.4S
SAXON HARBOR     1520   75                 1003.4R
$$

LMZ867-665-643>646-021700-
LAKE MICHIGAN

STATION/POSITION TIME  TEMP    WIND        PRES    WAVE
                       AIR SEA DIR/SP/G            HT/PER
                 (UTC) (F)     (DEG/KT/KT) (MB)    (FT/S)
CHAMBERS ISLAND  1500   69     280/  2/  3 1005.1F
S GREEN BAY BUOY 1500   69 65  200/ 10/ 14 1006.4
N MID LAKE BUOY  1550   67 68  280/  4/  6 1003.3F   2/ 4
NORTHPORT PIER   1500   69     290/  8/ 20 1004.7F
SISTER BAY       1545   70     120/ 14/ 19   N/A
ALGOMA LAKESHORE 1527          240/  7/ 12   N/A
KEWAUNEE LAKESHO 1500   76     290/ 13/ 20 1006.1R
SHEBOYGAN LAKESH 1600   80     250/ 15/ 21 1006.0R
PORT WASHINGTON  1500   83     250/ 12/ 18 1007.1S
ATWATER BUOY     1600   78 57  230/ 14/ 17 1008.1F
MILWAUKEE LAKESH 1500   81     240/ 19/ 23   N/A
KENOSHA   LAKESH 1600   85     250/ 20/ 25 1007.1F
$$

TC  - TEMPERATURE IN CELSIUS
VSB - VISIBILITY IN STATUTE MILES
WCI - WIND CHILL INDEX
HX  - HEAT INDEX



USA.gov is the U.S. government's official web portal to all federal, state and local government web resources and services.